Regional Weather Roundup
Issued by NWS Goodland, KS

Home | Current Version | Previous Version | Graphics & Text | Print | Product List | Glossary On
Versions: 1 2 3 4 5 6 7 8 9 10 11 12 13 14 15 16 17 18 19 20 21 22 23 24 25 26 27 28 29 30 31 32 33 34 35 36 37 38 39 40 41 42 43 44 45 46 47 48 49 50
000
ASUS43 KGLD 272359
RWRGLD

GOODLAND FORECAST AREA HOURLY WEATHER ROUNDUP
NATIONAL WEATHER SERVICE GOODLAND KS
600 PM MDT SUN JUL 27 2014

...OFFICIAL OBSERVATIONS...

CITY           SKY/WX    TMP DP  RH WIND       PRES   REMARKS
GOODLAND KS    SUNNY     86  46  24 E8        30.26R
HILL CITY KS   SUNNY     89  49  25 E9        30.17F
IMPERIAL NEB   SUNNY     86  46  24 N6        30.25S
MCCOOK NEB     SUNNY     88  48  25 N5        30.20F
AKRON CO       MOSUNNY   84  45  25 SE14      30.29S
BURLINGTON CO  SUNNY     83  43  24 SE10      30.29R
LIMON CO       PTSUNNY   79  54  41 SE20      30.33S
$$

...UNOFFICIAL OBSERVATIONS...

CITY           SKY/WX    TMP DP  RH WIND       PRES   REMARKS
COLBY KS       SUNNY     86  54  32 E9        30.24S
LENORA KS        N/A     87  32  14 MISG        N/A
NORTON KS      SUNNY     88  43  20 NE10G16   30.17F
TRENTON NEB      N/A     86  32  14 N12         N/A
KIT CARSON CO    N/A     84  56  37 N8G17       N/A
YUMA CO          N/A     85  44  23 E13         N/A
$$



USA.gov is the U.S. government's official web portal to all federal, state and local government web resources and services.